CW6144 Weather Reports


Display with metric or nautical units.
time (UTC)temp
F
wind
direction
speed
MPH
gust
MPH
rain 1hr
in
rain 24hr
in
rain mn
in
humidity
%
barometer
mb
20260905044010 78 169 3.0 8.0 0.00 0.00 0.00 67 1017.9
20260905043511 78 209 1.0 4.0 0.00 0.00 0.00 67 1017.9
20260905043019 77 208 2.0 4.0 0.00 0.00 0.00 68 1017.9
20260905042507 77 181 1.0 3.0 0.00 0.00 0.00 68 1017.9
20260905042004 77 157 1.0 2.0 0.00 0.00 0.00 68 1017.8
20260905041509 78 223 1.0 3.0 0.00 0.00 0.00 67 1018.0
20260905041006 78 219 1.0 3.0 0.00 0.00 0.00 67 1018.0
20260905040505 78 232 2.0 3.0 0.00 0.00 0.00 66 1017.9
20260905040017 79 225 1.0 2.0 0.00 0.00 0.00 66 1018.1
20260905035509 79 227 1.0 2.0 0.00 0.00 0.00 65 1018.1
20260905035010 79 207 0.0 2.0 0.00 0.00 0.00 64 1018.2
20260905034523 79 225 1.0 2.0 0.00 0.00 0.00 64 1018.1
20260905034012 79 232 1.0 5.0 0.00 0.00 0.00 64 1018.1
20260905033510 80 205 1.0 7.0 0.00 0.00 0.00 63 1018.1
20260905033020 80 196 1.0 7.0 0.00 0.00 0.00 62 1018.1
20260905032510 80 174 1.0 4.0 0.00 0.00 0.00 62 1018.0
20260905032013 80 162 2.0 4.0 0.00 0.00 0.00 61 1018.0
20260905031533 81 215 1.0 3.0 0.00 0.00 0.00 61 1018.0
20260905031012 81 145 1.0 3.0 0.00 0.00 0.00 60 1017.9
20260905030505 81 205 1.0 2.0 0.00 0.00 0.00 59 1017.9
20260905030013 81 215 0.0 4.0 0.00 0.00 0.00 59 1017.8
20260905025507 81 175 1.0 4.0 0.00 0.00 0.00 59 1017.8
20260905025008 81 192 1.0 4.0 0.00 0.00 0.00 59 1017.8
20260905024537 82 226 2.0 5.0 0.00 0.00 0.00 59 1017.8
20260905024010 82 181 1.0 5.0 0.00 0.00 0.00 59 1017.7
20260905023511 82 188 1.0 4.0 0.00 0.00 0.00 58 1017.6
20260905023026 82 195 2.0 6.0 0.00 0.00 0.00 58 1017.7
20260905022511 82 208 2.0 6.0 0.00 0.00 0.00 58 1017.7
20260905022012 82 215 3.0 7.0 0.00 0.00 0.00 58 1017.5
20260905021526 82 194 3.0 7.0 0.00 0.00 0.00 58 1017.5
20260905021011 83 204 1.0 7.0 0.00 0.00 0.00 57 1017.5
20260905020511 83 226 2.0 7.0 0.00 0.00 0.00 57 1017.4
20260905020030 83 173 3.0 7.0 0.00 0.00 0.00 57 1017.3
20260905015506 83 227 3.0 7.0 0.00 0.00 0.00 57 1017.2
20260905015006 83 173 3.0 6.0 0.00 0.00 0.00 57 1017.1
20260905014515 83 214 2.0 5.0 0.00 0.00 0.00 57 1017.1
20260905014008 83 156 3.0 5.0 0.00 0.00 0.00 56 1017.1
20260905013508 84 185 2.0 5.0 0.00 0.00 0.00 56 1017.0
20260905013024 84 211 3.0 5.0 0.00 0.00 0.00 56 1017.1
20260905012510 84 216 2.0 4.0 0.00 0.00 0.00 57 1017.2
20260905012012 84 152 2.0 6.0 0.00 0.00 0.00 57 1017.1
20260905011529 85 188 2.0 6.0 0.00 0.00 0.00 57 1017.1
20260905011016 85 190 2.0 5.0 0.00 0.00 0.00 57 1017.0
20260905010513 85 209 2.0 5.0 0.00 0.00 0.00 56 1016.9
20260905010026 85 211 2.0 5.0 0.00 0.00 0.00 56 1016.8
20260905005518 86 206 2.0 3.0 0.00 0.00 0.00 55 1016.7
20260905005014 86 165 1.0 4.0 0.00 0.00 0.00 55 1016.5
20260905004531 86 167 1.0 4.0 0.00 0.00 0.00 54 1016.5
20260905004008 87 190 1.0 4.0 0.00 0.00 0.00 54 1016.7
20260905003508 87 183 2.0 4.0 0.00 0.00 0.00 53 1016.8
20260905003017 88 167 1.0 6.0 0.00 0.00 0.00 52 1016.8
20260905002511 88 155 2.0 6.0 0.00 0.00 0.00 52 1016.8
20260905002012 89 178 2.0 4.0 0.00 0.00 0.00 51 1016.6
20260905001523 89 186 1.0 4.0 0.00 0.00 0.00 50 1016.6
20260905001012 90 171 1.0 5.0 0.00 0.00 0.00 49 1016.4
20260905000516 90 184 2.0 5.0 0.00 0.00 0.00 49 1016.4
20260905000031 90 209 2.0 4.0 0.00 0.00 0.00 48 1016.6
20260904235503 91 167 1.0 8.0 0.00 0.00 0.00 47 1016.6
20260904235005 91 191 1.0 8.0 0.00 0.00 0.00 47 1016.6
20260904234509 91 113 1.0 4.0 0.00 0.00 0.00 46 1016.7
20260904234006 91 169 1.0 6.0 0.00 0.00 0.00 46 1016.6
20260904233507 92 134 1.0 6.0 0.00 0.00 0.00 46 1016.5
20260904233014 92 140 2.0 5.0 0.00 0.00 0.00 45 1016.4
20260904232507 92 161 2.0 6.0 0.00 0.00 0.00 45 1016.7
20260904232014 92 176 3.0 7.0 0.00 0.00 0.00 45 1016.7
20260904231504 93 146 3.0 7.0 0.00 0.00 0.00 45 1016.7
20260904231003 93 138 1.0 7.0 0.00 0.00 0.00 44 1016.6
20260904230503 93 186 2.0 7.0 0.00 0.00 0.00 43 1016.5
20260904230043 93 150 2.0 5.0 0.00 0.00 0.00 43 1016.4
20260904225503 93 171 1.0 5.0 0.00 0.00 0.00 43 1016.6
20260904225014 93 188 3.0 6.0 0.00 0.00 0.00 43 1016.7
20260904224533 93 88 1.0 7.0 0.00 0.00 0.00 43 1016.6
20260904224006 94 80 2.0 7.0 0.00 0.00 0.00 43 1016.7
20260904223506 94 202 3.0 7.0 0.00 0.00 0.00 42 1016.6
20260904223030 94 158 3.0 8.0 0.00 0.00 0.00 41 1016.4
20260904222512 94 92 2.0 10.0 0.00 0.00 0.00 42 1016.6
20260904222009 94 98 2.0 10.0 0.00 0.00 0.00 42 1016.7
20260904221519 95 259 2.0 7.0 0.00 0.00 0.00 42 1016.7
20260904221016 95 189 2.0 7.0 0.00 0.00 0.00 41 1016.7
20260904220512 95 177 3.0 7.0 0.00 0.00 0.00 42 1016.7
20260904220034 95 213 1.0 7.0 0.00 0.00 0.00 43 1016.6
20260904215503 95 107 4.0 7.0 0.00 0.00 0.00 42 1016.8
20260904215015 96 169 3.0 7.0 0.00 0.00 0.00 42 1017.0
20260904214531 96 146 3.0 7.0 0.00 0.00 0.00 42 1017.0
20260904214003 95 142 2.0 8.0 0.00 0.00 0.00 43 1017.0
20260904213505 95 225 4.0 8.0 0.00 0.00 0.00 43 1017.0
20260904213011 95 197 4.0 8.0 0.00 0.00 0.00 42 1016.9
20260904212515 95 201 4.0 9.0 0.00 0.00 0.00 43 1017.0
20260904212007 94 194 5.0 12.0 0.00 0.00 0.00 43 1017.1
20260904211517 94 228 4.0 12.0 0.00 0.00 0.00 1017.1
20260904211009 94 86 3.0 8.0 0.00 0.00 0.00 1017.2
20260904210512 95 77 3.0 10.0 0.00 0.00 0.00 42 1017.2
20260904210026 95 219 3.0 10.0 0.00 0.00 0.00 42 1017.1
20260904205513 95 176 3.0 9.0 0.00 0.00 0.00 42 1017.1
20260904205013 94 192 3.0 9.0 0.00 0.00 0.00 42 1017.2
20260904204507 95 45 3.0 9.0 0.00 0.00 0.00 42 1017.4
20260904204014 94 246 5.0 10.0 0.00 0.00 0.00 43 1017.5
20260904203505 93 360 4.0 10.0 0.00 0.00 0.00 44 1017.4
20260904203009 95 61 2.0 9.0 0.00 0.00 0.00 1017.3
20260904202516 95 130 1.0 9.0 0.00 0.00 0.00 43 1017.3
20260904202008 94 80 3.0 7.0 0.00 0.00 0.00 43 1017.3
20260904201524 95 180 2.0 10.0 0.00 0.00 0.00 42 1017.5
20260904201007 95 219 3.0 10.0 0.00 0.00 0.00 43 1017.7
20260904200509 94 163 3.0 10.0 0.00 0.00 0.00 43 1017.9
20260904200039 94 82 4.0 10.0 0.00 0.00 0.00 43 1017.9
20260904195511 94 132 3.0 9.0 0.00 0.00 0.00 43 1017.8
20260904195012 93 73 4.0 9.0 0.00 0.00 0.00 43 1017.7
20260904194528 94 122 4.0 8.0 0.00 0.00 0.00 42 1018.0
20260904194014 95 171 3.0 9.0 0.00 0.00 0.00 43 1017.9
20260904193516 94 188 3.0 10.0 0.00 0.00 0.00 43 1017.9
20260904193037 95 217 3.0 13.0 0.00 0.00 0.00 43 1018.1
20260904192504 95 133 5.0 13.0 0.00 0.00 0.00 43 1018.1
20260904192013 95 56 3.0 8.0 0.00 0.00 0.00 43 1018.1
20260904191516 95 176 3.0 10.0 0.00 0.00 0.00 43 1018.1
20260904191008 95 63 5.0 10.0 0.00 0.00 0.00 44 1018.1
20260904190516 94 172 4.0 8.0 0.00 0.00 0.00 44 1018.1
20260904190030 93 242 4.0 8.0 0.00 0.00 0.00 46 1018.1
20260904185511 93 134 2.0 11.0 0.00 0.00 0.00 45 1018.2
20260904185018 94 207 5.0 11.0 0.00 0.00 0.00 45 1018.5
20260904184524 93 175 4.0 11.0 0.00 0.00 0.00 45 1018.5
20260904184019 93 244 5.0 11.0 0.00 0.00 0.00 46 1018.6
20260904183514 93 97 4.0 11.0 0.00 0.00 0.00 45 1018.5
20260904183032 93 129 6.0 10.0 0.00 0.00 0.00 45 1018.5
20260904182517 94 53 5.0 13.0 0.00 0.00 0.00 44 1018.6
20260904182023 94 252 2.0 13.0 0.00 0.00 0.00 45 1018.7
20260904181509 94 147 4.0 9.0 0.00 0.00 0.00 45 1018.5
20260904181016 94 130 4.0 9.0 0.00 0.00 0.00 45 1018.6
20260904180513 94 128 5.0 9.0 0.00 0.00 0.00 45 1018.9
20260904180014 93 121 4.0 9.0 0.00 0.00 0.00 45 1018.9
20260904175510 93 170 4.0 13.0 0.00 0.00 0.00 46 1018.9
20260904175009 92 219 5.0 13.0 0.00 0.00 0.00 46 1019.0
20260904174535 92 163 3.0 11.0 0.00 0.00 0.00 47 1018.9
20260904174009 93 167 4.0 11.0 0.00 0.00 0.00 45 1019.1
20260904173513 93 189 6.0 11.0 0.00 0.00 0.00 45 1019.4
20260904173029 92 177 2.0 12.0 0.00 0.00 0.00 47 1019.3
20260904172514 92 192 3.0 12.0 0.00 0.00 0.00 46 1019.1
20260904172017 92 178 5.0 12.0 0.00 0.00 0.00 46 1019.3
20260904171557 92 186 6.0 13.0 0.00 0.00 0.00 46 1019.4
20260904171013 92 163 4.0 13.0 0.00 0.00 0.00 48 1019.4
20260904170503 91 160 5.0 11.0 0.00 0.00 0.00 48 1019.3
20260904170033 91 74 4.0 11.0 0.00 0.00 0.00 49 1019.4
20260904165510 91 160 3.0 8.0 0.00 0.00 0.00 49 1019.3
20260904165010 91 194 3.0 12.0 0.00 0.00 0.00 50 1019.6
20260904164521 91 217 4.0 12.0 0.00 0.00 0.00 49 1019.7
20260904164017 91 232 3.0 10.0 0.00 0.00 0.00 50 1019.6
20260904163508 90 173 2.0 10.0 0.00 0.00 0.00 51 1019.6
20260904163044 90 178 2.0 7.0 0.00 0.00 0.00 52 1019.5
20260904162515 90 227 2.0 8.0 0.00 0.00 0.00 52 1019.6
20260904162016 89 169 2.0 10.0 0.00 0.00 0.00 53 1019.6
20260904161530 89 177 5.0 10.0 0.00 0.00 0.00 52 1019.6
20260904161015 89 221 3.0 9.0 0.00 0.00 0.00 53 1019.6
20260904160517 88 183 3.0 9.0 0.00 0.00 0.00 54 1019.5
20260904160031 88 209 5.0 11.0 0.00 0.00 0.00 55 1019.4
20260904155518 88 190 4.0 11.0 0.00 0.00 0.00 55 1019.5
20260904155019 87 211 6.0 10.0 0.00 0.00 0.00 55 1019.7
20260904154519 88 196 5.0 8.0 0.00 0.00 0.00 55 1019.8
20260904154017 88 229 5.0 10.0 0.00 0.00 0.00 55 1019.8
20260904153512 87 254 4.0 10.0 0.00 0.00 0.00 55 1019.8
20260904153034 88 221 5.0 8.0 0.00 0.00 0.00 55 1019.7
20260904152517 87 202 5.0 8.0 0.00 0.00 0.00 56 1019.7
20260904152017 87 226 4.0 10.0 0.00 0.00 0.00 56 1019.7
20260904151537 87 150 4.0 9.0 0.00 0.00 0.00 57 1019.7
20260904151019 87 165 2.0 9.0 0.00 0.00 0.00 58 1019.7
20260904150514 86 196 4.0 11.0 0.00 0.00 0.00 58 1019.6
20260904150035 86 212 4.0 10.0 0.00 0.00 0.00 58 1019.6
20260904145504 86 209 5.0 9.0 0.00 0.00 0.00 59 1019.5
20260904145007 85 128 2.0 12.0 0.00 0.00 0.00 59 1019.5
20260904144516 85 230 4.0 12.0 0.00 0.00 0.00 60 1019.5
20260904144017 85 242 4.0 9.0 0.00 0.00 0.00 59 1019.4
20260904143508 85 186 4.0 9.0 0.00 0.00 0.00 59 1019.3
20260904143042 85 151 3.0 7.0 0.00 0.00 0.00 61 1019.3
20260904142510 84 134 4.0 7.0 0.00 0.00 0.00 60 1019.3
20260904142003 84 222 2.0 6.0 0.00 0.00 0.00 62 1019.4
20260904141514 84 196 3.0 6.0 0.00 0.00 0.00 63 1019.4
20260904141002 83 234 3.0 7.0 0.00 0.00 0.00 65 1019.3
20260904140507 82 238 4.0 7.0 0.00 0.00 0.00 64 1019.3
20260904140007 82 221 3.0 5.0 0.00 0.00 0.00 66 1019.2
20260904135504 81 186 3.0 5.0 0.00 0.00 0.00 67 1019.3
20260904135006 81 182 3.0 6.0 0.00 0.00 0.00 68 1019.3
20260904134514 80 219 3.0 6.0 0.00 0.00 0.00 69 1019.3
20260904134008 80 208 1.0 3.0 0.00 0.00 0.00 71 1019.3
20260904133507 79 143 2.0 3.0 0.00 0.00 0.00 72 1019.3
20260904133035 78 224 2.0 3.0 0.00 0.00 0.00 72 1019.2
20260904132514 78 187 1.0 3.0 0.00 0.00 0.00 74 1019.1
20260904132018 77 188 1.0 4.0 0.00 0.00 0.00 76 1019.1
20260904131525 76 186 1.0 4.0 0.00 0.00 0.00 78 1019.1
20260904131013 75 188 1.0 4.0 0.00 0.00 0.00 79 1019.0
20260904130511 75 214 1.0 2.0 0.00 0.00 0.00 80 1019.0
20260904130006 74 201 1.0 2.0 0.00 0.00 0.00 81 1019.0
20260904125504 74 211 1.0 3.0 0.00 0.00 0.00 82 1018.9
20260904125003 73 238 1.0 3.0 0.00 0.00 0.00 83 1018.9
20260904124511 73 217 1.0 2.0 0.00 0.00 0.00 84 1018.8
20260904124006 72 242 1.0 2.0 0.00 0.00 0.00 84 1018.8
20260904123510 72 242 1.0 2.0 0.00 0.00 0.00 84 1018.7
20260904123014 72 242 1.0 2.0 0.00 0.00 0.00 85 1018.7
20260904122513 72 222 1.0 2.0 0.00 0.00 0.00 85 1018.7
20260904122010 72 222 1.0 2.0 0.00 0.00 0.00 85 1018.7
20260904121524 71 222 1.0 1.0 0.00 0.00 0.00 85 1018.6
20260904121013 71 222 1.0 2.0 0.00 0.00 0.00 86 1018.6
20260904120511 71 222 0.0 2.0 0.00 0.00 0.00 86 1018.6
20260904120040 71 220 1.0 2.0 0.00 0.00 0.00 86 1018.5
20260904115502 71 231 1.0 3.0 0.00 0.00 0.00 86 1018.5
20260904115003 71 225 1.0 4.0 0.00 0.00 0.00 86 1018.5
20260904114512 71 223 1.0 4.0 0.00 0.00 0.00 86 1018.5
20260904114004 71 225 2.0 4.0 0.00 0.00 0.00 86 1018.5
20260904113507 71 227 1.0 4.0 0.00 0.00 0.00 86 1018.4
20260904113013 71 215 2.0 3.0 0.00 0.00 0.00 86 1018.5
20260904112507 71 218 2.0 3.0 0.00 0.00 0.00 86 1018.5
20260904112007 71 182 1.0 3.0 0.00 0.00 0.00 86 1018.5
20260904111521 71 240 2.0 3.0 0.00 0.00 0.00 86 1018.4
20260904111011 71 219 2.0 3.0 0.00 0.00 0.00 86 1018.4
20260904110511 71 183 2.0 2.0 0.00 0.00 0.00 86 1018.4
20260904110026 71 169 1.0 4.0 0.00 0.00 0.00 86 1018.4
20260904105511 71 188 1.0 4.0 0.00 0.00 0.00 86 1018.4
20260904105016 71 217 1.0 2.0 0.00 0.00 0.00 85 1018.4
20260904104531 71 198 1.0 2.0 0.00 0.00 0.00 85 1018.4
20260904104005 71 219 1.0 2.0 0.00 0.00 0.00 85 1018.3
20260904103502 71 209 1.0 2.0 0.00 0.00 0.00 85 1018.3
20260904103010 71 223 1.0 2.0 0.00 0.00 0.00 85 1018.3
20260904102508 72 209 1.0 2.0 0.00 0.00 0.00 85 1018.3
20260904102009 72 221 0.0 2.0 0.00 0.00 0.00 84 1018.3
20260904101521 72 221 1.0 3.0 0.00 0.00 0.00 84 1018.3
20260904101012 72 221 1.0 3.0 0.00 0.00 0.00 84 1018.3
20260904100511 72 228 1.0 2.0 0.00 0.00 0.00 84 1018.3
20260904100023 72 213 1.0 2.0 0.00 0.00 0.00 84 1018.2
20260904095510 72 232 1.0 3.0 0.00 0.00 0.00 83 1018.1
20260904095015 72 225 1.0 4.0 0.00 0.00 0.00 83 1018.1
20260904094528 72 221 1.0 4.0 0.00 0.00 0.00 83 1018.1
20260904094020 72 216 2.0 4.0 0.00 0.00 0.00 83 1018.1
20260904093514 73 209 2.0 4.0 0.00 0.00 0.00 83 1018.1
20260904093008 73 202 3.0 4.0 0.00 0.00 0.00 82 1018.1
20260904092503 73 229 2.0 3.0 0.00 0.00 0.00 82 1018.0
20260904092019 73 216 1.0 3.0 0.00 0.00 0.00 82 1018.0
20260904091519 73 226 2.0 4.0 0.00 0.00 0.00 82 1018.0
20260904091011 73 207 2.0 4.0 0.00 0.00 0.00 82 1018.0
20260904090513 73 198 1.0 3.0 0.00 0.00 0.00 81 1018.0
20260904090024 73 229 2.0 4.0 0.00 0.00 0.00 81 1018.0
20260904085519 73 229 1.0 4.0 0.00 0.00 0.00 81 1018.0
20260904085012 73 219 2.0 4.0 0.00 0.00 0.00 81 1018.0
20260904084527 73 195 1.0 4.0 0.00 0.00 0.00 81 1017.9
20260904084012 73 207 2.0 5.0 0.00 0.00 0.00 81 1017.9
20260904083520 74 204 2.0 5.0 0.00 0.00 0.00 81 1017.9
20260904083031 74 222 2.0 5.0 0.00 0.00 0.00 81 1017.9
20260904082518 74 205 2.0 5.0 0.00 0.00 0.00 81 1017.9
20260904082016 74 233 2.0 5.0 0.00 0.00 0.00 81 1017.9
20260904081512 74 200 2.0 5.0 0.00 0.00 0.00 81 1017.9
20260904081007 74 229 2.0 5.0 0.00 0.00 0.00 80 1017.9
20260904080508 74 223 2.0 6.0 0.00 0.00 0.00 80 1017.9
20260904080016 74 227 2.0 6.0 0.00 0.00 0.00 80 1017.9
20260904075510 74 204 2.0 5.0 0.00 0.00 0.00 79 1017.9
20260904075009 75 200 2.0 4.0 0.00 0.00 0.00 78 1017.9
20260904074525 75 198 1.0 3.0 0.00 0.00 0.00 78 1017.9
20260904074011 75 225 2.0 3.0 0.00 0.00 0.00 77 1017.9
20260904073512 76 226 1.0 6.0 0.00 0.00 0.00 77 1017.9
20260904073026 76 194 2.0 6.0 0.00 0.00 0.00 77 1017.9
20260904072515 76 194 2.0 6.0 0.00 0.00 0.00 77 1017.8
20260904072016 76 228 2.0 5.0 0.00 0.00 0.00 76 1017.8
20260904071534 76 184 2.0 5.0 0.00 0.00 0.00 76 1017.8
20260904071020 77 190 1.0 5.0 0.00 0.00 0.00 76 1017.9
20260904070515 77 224 2.0 7.0 0.00 0.00 0.00 75 1017.9
20260904070015 77 175 3.0 7.0 0.00 0.00 0.00 75 1018.0
20260904065505 77 199 1.0 6.0 0.00 0.00 0.00 75 1017.9
20260904065012 77 209 3.0 6.0 0.00 0.00 0.00 75 1018.0
20260904064524 77 167 2.0 5.0 0.00 0.00 0.00 75 1018.0
20260904064012 77 180 3.0 5.0 0.00 0.00 0.00 75 1018.0
20260904063512 77 208 2.0 5.0 0.00 0.00 0.00 75 1018.0
20260904063028 77 184 1.0 5.0 0.00 0.00 0.00 75 1017.9
20260904062518 77 143 1.0 5.0 0.00 0.00 0.00 75 1018.0
20260904062016 77 221 1.0 6.0 0.00 0.00 0.00 75 1018.0
20260904061528 77 157 2.0 6.0 0.00 0.00 0.00 75 1018.0
20260904061019 77 203 1.0 5.0 0.00 0.00 0.00 75 1017.9
20260904060515 77 153 2.0 7.0 0.00 0.00 0.00 75 1017.9
20260904060039 78 180 2.0 9.0 0.00 0.00 0.00 74 1017.9
20260904055506 78 207 1.0 9.0 0.00 0.00 0.00 74 1017.9
20260904055010 77 211 2.0 6.0 0.00 0.00 0.00 74 1017.9
20260904054532 77 175 3.0 11.0 0.00 0.00 0.00 74 1017.9
20260904054011 77 149 2.0 11.0 0.00 0.00 0.00 74 1017.8
20260904053509 77 111 2.0 5.0 0.00 0.00 0.00 74 1017.8
20260904053004 77 212 2.0 5.0 0.00 0.00 0.00 74 1017.8
20260904052504 77 185 2.0 6.0 0.00 0.00 0.00 74 1017.8
20260904052003 77 192 2.0 6.0 0.00 0.00 0.00 74 1017.8
20260904051505 78 194 2.0 6.0 0.00 0.00 0.00 73 1017.8
20260904051004 78 172 2.0 6.0 0.00 0.00 0.00 73 1017.8
20260904050503 78 208 2.0 5.0 0.00 0.00 0.00 73 1017.8
20260904050011 78 211 2.0 5.0 0.00 0.00 0.00 73 1017.9
20260904045516 78 127 2.0 5.0 0.00 0.00 0.00 73 1017.9
20260904045008 78 160 1.0 5.0 0.00 0.00 0.00 72 1017.9
20260904044533 78 185 2.0 5.0 0.00 0.00 0.00 72 1017.9